This is the latest recevied weather packets stored in our database for station/object KC3DGM. If no packets are shown the sender has not sent any weather packets the latest 10 day(s).
| Time | Temp. | Humidity | Pressure | Rain* | Wind** | Luminosity | Snow |
|---|---|---|---|---|---|---|---|
| 1777399119 | 14.44° C | 86% | 985.2 hPa | 0 mm | - | 71 W/m² | - |
| 1777398816 | 14.44° C | 86% | 985 hPa | 0 mm | - | 78 W/m² | - |
| 1777398513 | 14.44° C | 85% | 985.1 hPa | 0 mm | - | 76 W/m² | - |
| 1777398210 | 14.44° C | 85% | 984.9 hPa | 0 mm | - | 80 W/m² | - |
| 1777397907 | 14.44° C | 85% | 984.9 hPa | 0 mm | - | 73 W/m² | - |
| 1777397602 | 14.44° C | 84% | 984.8 hPa | 0 mm | - | 65 W/m² | - |
| 1777397299 | 14.44° C | 84% | 984.9 hPa | 0 mm | - | 78 W/m² | - |
| 1777396996 | 14.44° C | 84% | 984.7 hPa | 0 mm | - | 103 W/m² | - |
| 1777396692 | 14.44° C | 83% | 984.7 hPa | 0 mm | - | 81 W/m² | - |
| 1777396389 | 14.44° C | 84% | 985 hPa | 0 mm | - | 80 W/m² | - |
| 1777396086 | 14.44° C | 84% | 984.9 hPa | 0 mm | - | 106 W/m² | - |
| 1777395781 | 14.44° C | 84% | 984.8 hPa | 0 mm | - | 93 W/m² | - |
| 1777395476 | 14.44° C | 83% | 985.1 hPa | 0 mm | - | 95 W/m² | - |
| 1777395174 | 14.44° C | 84% | 985 hPa | 0 mm | - | 91 W/m² | - |
| 1777394871 | 13.89° C | 84% | 985 hPa | 0 mm | - | 87 W/m² | - |
| 1777394567 | 13.89° C | 84% | 985 hPa | 0 mm | - | 73 W/m² | - |
| 1777394264 | 13.89° C | 84% | 985.1 hPa | 0 mm | - | 61 W/m² | - |
| 1777393960 | 13.89° C | 85% | 985.1 hPa | 0 mm | - | 90 W/m² | - |
| 1777393659 | 13.89° C | 84% | 985.1 hPa | 0 mm | - | 81 W/m² | - |
| 1777393355 | 13.89° C | 84% | 984.7 hPa | 0 mm | - | 81 W/m² | - |
| 1777393051 | 13.89° C | 84% | 984.8 hPa | 0 mm | - | 86 W/m² | - |
| 1777392747 | 13.89° C | 84% | 985 hPa | 0 mm | - | 104 W/m² | - |
| 1777392444 | 13.89° C | 84% | 985.1 hPa | 0 mm | - | 88 W/m² | - |
| 1777392139 | 13.89° C | 85% | 984.9 hPa | 0 mm | - | 92 W/m² | - |
| 1777391835 | 13.89° C | 85% | 985 hPa | 0 mm | - | 84 W/m² | - |
* Rain latest hour (hover to see other rain measurements)
** Current wind speed in m/s (hover to see current wind gust speed)